Location: *
(45.4590°N, 16.3650°E)
Time: 01:19:14
(UTC+00:00)

Cosmos 2150 Rocket - Pass Details

Date: 17 January 2020
Orbit: 749 x 808 km, 74.0° (Epoch: 22 February)

Event Time Altitude Azimuth Distance (km) Brightness Sun altitude
Rises 16:44:47 0° 194° (SSW) 3,202 7.7 -11.3°
Reaches altitude 10° 16:47:09 10° 192° (SSW) 2,275 6.9 -11.7°
Maximum altitude 16:52:17 74° 109° (ESE) 784 3.9 -12.6°
Drops below altitude 10° 16:57:25 10° 25° (NNE) 2,278 6.1 -13.4°
Enters shadow 16:58:14 - 24° (NNE) 2,596 6.4 -13.6°
